TimePDT,TemperatureF,Dew PointF,Humidity,Sea Level PressureIn,VisibilityMPH,Wind Direction,Wind SpeedMPH,Gust SpeedMPH,PrecipitationIn,Events,Conditions,WindDirDegrees,DateUTC
12:15 AM,51.8,51.8,100,30.09,1.8,North,3.5,-,N/A,,Overcast,10,2013-05-08 07:15:00
12:35 AM,51.8,51.8,100,30.09,2.0,Calm,Calm,-,N/A,,Overcast,0,2013-05-08 07:35:00
12:55 AM,51.8,50.0,94,30.09,3.0,Calm,Calm,-,N/A,,Overcast,0,2013-05-08 07:55:00
1:15 AM,51.8,51.8,100,30.08,2.0,WNW,3.5,-,N/A,,Overcast,300,2013-05-08 08:15:00
1:35 AM,51.8,50.0,94,30.08,3.0,North,3.5,-,N/A,,Overcast,350,2013-05-08 08:35:00
1:55 AM,51.8,50.0,94,30.08,7.0,NNW,4.6,-,N/A,,Overcast,330,2013-05-08 08:55:00
2:15 AM,50.0,50.0,100,30.09,4.0,Calm,Calm,-,N/A,,Overcast,0,2013-05-08 09:15:00
2:35 AM,51.8,50.0,94,30.09,2.5,Calm,Calm,-,N/A,,Overcast,0,2013-05-08 09:35:00
2:55 AM,51.8,50.0,94,30.09,1.8,Calm,Calm,-,N/A,,Overcast,0,2013-05-08 09:55:00
3:15 AM,51.8,50.0,94,30.09,2.0,Calm,Calm,-,N/A,,Overcast,0,2013-05-08 10:15:00
3:35 AM,51.8,50.0,94,30.09,2.5,Calm,Calm,-,N/A,,Overcast,0,2013-05-08 10:35:00
3:55 AM,51.8,50.0,94,30.09,2.5,Calm,Calm,-,N/A,,Overcast,0,2013-05-08 10:55:00
4:15 AM,51.8,51.8,100,30.09,3.0,Calm,Calm,-,N/A,,Overcast,0,2013-05-08 11:15:00
4:35 AM,51.8,51.8,100,30.09,3.0,West,3.5,-,N/A,,Overcast,280,2013-05-08 11:35:00
4:55 AM,51.8,51.8,100,30.09,3.0,WSW,3.5,-,N/A,,Overcast,250,2013-05-08 11:55:00
5:15 AM,53.6,51.8,94,30.10,4.0,West,3.5,-,N/A,,Overcast,270,2013-05-08 12:15:00
5:35 AM,53.6,51.8,94,30.10,5.0,SW,3.5,-,N/A,,Overcast,230,2013-05-08 12:35:00
5:55 AM,53.6,51.8,94,30.11,5.0,WSW,4.6,-,N/A,,Overcast,240,2013-05-08 12:55:00
6:15 AM,53.6,51.8,94,30.12,7.0,WSW,4.6,-,N/A,,Overcast,240,2013-05-08 13:15:00
6:35 AM,53.6,51.8,94,30.12,4.0,WSW,5.8,-,N/A,,Overcast,240,2013-05-08 13:35:00
6:55 AM,51.8,51.8,100,30.13,3.0,WSW,6.9,-,N/A,,Overcast,240,2013-05-08 13:55:00
7:15 AM,51.8,51.8,100,30.13,3.0,SW,5.8,-,N/A,,Overcast,230,2013-05-08 14:15:00
7:35 AM,51.8,51.8,100,30.13,3.0,SSW,6.9,-,N/A,,Overcast,200,2013-05-08 14:35:00
7:55 AM,53.6,51.8,94,30.14,3.0,SW,5.8,-,N/A,,Overcast,220,2013-05-08 14:55:00
8:15 AM,53.6,51.8,94,30.14,3.0,SW,3.5,-,N/A,,Overcast,220,2013-05-08 15:15:00
8:35 AM,53.6,51.8,94,30.14,1.5,WSW,4.6,-,N/A,,Overcast,240,2013-05-08 15:35:00
8:55 AM,51.8,51.8,100,30.14,2.5,NW,4.6,-,N/A,,Overcast,320,2013-05-08 15:55:00
9:15 AM,53.6,51.8,94,30.14,1.5,NW,4.6,-,N/A,,Overcast,320,2013-05-08 16:15:00
9:35 AM,53.6,51.8,94,30.15,2.5,NW,5.8,-,N/A,,Overcast,320,2013-05-08 16:35:00
9:55 AM,53.6,51.8,94,30.15,5.0,NNW,5.8,-,N/A,,Overcast,330,2013-05-08 16:55:00
10:15 AM,53.6,50.0,88,30.16,2.5,NW,4.6,-,N/A,,Overcast,320,2013-05-08 17:15:00
10:35 AM,53.6,50.0,88,30.16,3.0,NNW,4.6,-,N/A,,Overcast,330,2013-05-08 17:35:00
10:55 AM,53.6,50.0,88,30.16,8.0,NNW,4.6,-,N/A,,Overcast,330,2013-05-08 17:55:00
11:15 AM,55.4,50.0,82,30.17,8.0,NW,6.9,-,N/A,,Overcast,320,2013-05-08 18:15:00
11:35 AM,55.4,50.0,82,30.17,9.0,NW,8.1,-,N/A,,Overcast,320,2013-05-08 18:35:00
11:55 AM,55.4,50.0,82,30.17,9.0,WNW,6.9,-,N/A,,Overcast,300,2013-05-08 18:55:00
12:15 PM,55.4,50.0,82,30.17,10.0,WNW,6.9,-,N/A,,Overcast,300,2013-05-08 19:15:00
12:35 PM,55.4,50.0,82,30.17,10.0,NW,8.1,-,N/A,,Overcast,320,2013-05-08 19:35:00
12:55 PM,57.2,51.8,82,30.16,10.0,NNW,8.1,-,N/A,,Overcast,330,2013-05-08 19:55:00
1:35 PM,55.4,50.0,82,30.17,7.0,NNW,8.1,-,N/A,,Overcast,330,2013-05-08 20:35:00
1:55 PM,53.6,51.8,94,30.17,3.0,NNW,9.2,-,N/A,,Overcast,330,2013-05-08 20:55:00
2:15 PM,55.4,50.0,82,30.17,7.0,NNW,10.4,-,N/A,,Overcast,340,2013-05-08 21:15:00
2:35 PM,55.4,50.0,82,30.17,8.0,NW,8.1,-,N/A,,Overcast,320,2013-05-08 21:35:00
2:55 PM,55.4,50.0,82,30.17,8.0,NW,9.2,-,N/A,,Overcast,310,2013-05-08 21:55:00
3:15 PM,55.4,50.0,82,30.16,8.0,NNW,8.1,-,N/A,,Overcast,330,2013-05-08 22:15:00
3:35 PM,55.4,50.0,82,30.16,9.0,NNW,10.4,-,N/A,,Overcast,330,2013-05-08 22:35:00
3:55 PM,55.4,50.0,82,30.16,10.0,North,9.2,-,N/A,,Overcast,350,2013-05-08 22:55:00
4:15 PM,55.4,50.0,82,30.15,10.0,NNW,10.4,-,N/A,,Overcast,330,2013-05-08 23:15:00
4:35 PM,55.4,50.0,82,30.15,9.0,NNW,9.2,-,N/A,,Overcast,330,2013-05-08 23:35:00
4:55 PM,53.6,50.0,88,30.15,9.0,NNW,10.4,-,N/A,,Overcast,340,2013-05-08 23:55:00
5:15 PM,53.6,50.0,88,30.15,7.0,NNW,9.2,-,N/A,,Overcast,340,2013-05-09 00:15:00
5:35 PM,53.6,50.0,88,30.15,8.0,NNW,9.2,-,N/A,,Overcast,340,2013-05-09 00:35:00
5:55 PM,53.6,50.0,88,30.15,8.0,NNW,10.4,-,N/A,,Overcast,330,2013-05-09 00:55:00
6:15 PM,53.6,50.0,88,30.15,8.0,NNW,9.2,-,N/A,,Overcast,330,2013-05-09 01:15:00
6:35 PM,53.6,50.0,88,30.15,8.0,NNW,11.5,-,N/A,,Overcast,330,2013-05-09 01:35:00
6:55 PM,53.6,50.0,88,30.15,8.0,NNW,10.4,-,N/A,,Overcast,340,2013-05-09 01:55:00
7:15 PM,53.6,48.2,82,30.15,9.0,NNW,11.5,-,N/A,,Overcast,340,2013-05-09 02:15:00
7:35 PM,53.6,48.2,82,30.15,8.0,North,12.7,-,N/A,,Overcast,350,2013-05-09 02:35:00
7:55 PM,53.6,48.2,82,30.15,8.0,NNW,11.5,-,N/A,,Overcast,340,2013-05-09 02:55:00
8:15 PM,53.6,48.2,82,30.15,8.0,North,11.5,-,N/A,,Overcast,350,2013-05-09 03:15:00
8:35 PM,53.6,48.2,82,30.15,9.0,NNW,13.8,18.4,N/A,,Overcast,330,2013-05-09 03:35:00
8:55 PM,53.6,48.2,82,30.16,10.0,NNW,9.2,-,N/A,,Overcast,330,2013-05-09 03:55:00
9:15 PM,53.6,48.2,82,30.17,10.0,North,10.4,19.6,N/A,,Overcast,360,2013-05-09 04:15:00
9:35 PM,53.6,48.2,82,30.18,10.0,NNW,13.8,19.6,N/A,,Overcast,340,2013-05-09 04:35:00
9:55 PM,53.6,48.2,82,30.18,10.0,NNW,13.8,20.7,N/A,,Overcast,340,2013-05-09 04:55:00
10:15 PM,53.6,48.2,82,30.18,9.0,NNW,10.4,16.1,N/A,,Overcast,340,2013-05-09 05:15:00
10:35 PM,53.6,48.2,82,30.18,9.0,NNW,9.2,-,N/A,,Overcast,330,2013-05-09 05:35:00
10:55 PM,53.6,48.2,82,30.18,10.0,NNW,10.4,-,N/A,,Overcast,330,2013-05-09 05:55:00
11:15 PM,53.6,48.2,82,30.18,10.0,North,6.9,-,N/A,,Overcast,360,2013-05-09 06:15:00
11:35 PM,53.6,48.2,82,30.18,10.0,North,9.2,-,N/A,,Overcast,350,2013-05-09 06:35:00
11:55 PM,53.6,48.2,82,30.18,10.0,NNW,12.7,16.1,N/A,,Overcast,330,2013-05-09 06:55:00